Content
SEND FEEDBACK

Daily
Averages
Monthly
Summary
United States of America

WICHITA, KANSAS


Home > North America > United States > Kansas
Elevation: 1321 feet     Latitude: 37 39N     Longitude: 097 26W

WEATHER
 
SELECT A DAY
Number of Records: 194,179;   Date Range: 1/1/95 - 9/29/14
 
SHARE

PRINT THIS DATA

[ ← Previous Day ]
WEATHER ALMANAC - FEBRUARY 12, 2013
[ Next Day → ]
[ °C ]   °F
Weather ElementAverageHighLow
Temperature35.7 °F42.1 °F (3:53 pm)28 °F (11:53 pm)
Dewpoint24.3 °F32 °F (6:53 pm)21 °F (1:53 am)
Humidity65.6 %100 % (11:53 pm)43 % (3:53 pm)
Barometer30.09 in30.15 in (2:53 am)30.03 in (5:53 pm)
Wind Speed5 mph9.2 mph (7:53 am)
Weather ElementAverage
Visibility9.6 mi
Wind DirectionESE (110 °)

Weather ElementTotal
Precipitation---
Heating Degree Days30 (Base 65)
Averaged from 23 records on February 12, 2013
WEATHER CONDITIONS BREAKOUT
WIND DIRECTION BREAKOUT
WEATHER BY HOUR - FEBRUARY 12, 2013
[ °C ]   °F
Local TimeTemperatureDewpointHumidityBarometerVisibilityWind DirectionWind SpeedGust SpeedPrecipitationEventsConditions
1:53 AM30.0 °F21.0 °F69 %30.14 in10.0 miNE (40°)5.8 mphScattered Clouds
2:53 AM33.1 °F21.0 °F61 %30.15 in10.0 miCalmMostly Cloudy
3:53 AM30.9 °F23.0 °F72 %30.14 in10.0 miCalmOvercast
4:53 AM32.0 °F21.9 °F66 %30.12 in10.0 miNorth (10°)6.9 mphMostly Cloudy
5:53 AM33.1 °F21.0 °F61 %30.11 in10.0 miNNE (30°)5.8 mphMostly Cloudy
6:53 AM30.9 °F23.0 °F72 %30.14 in10.0 miCalmOvercast
7:53 AM34.0 °F21.9 °F61 %30.14 in10.0 miEast (80°)9.2 mphOvercast
8:53 AM36.0 °F21.9 °F57 %30.12 in10.0 miENE (60°)9.2 mphOvercast
9:53 AM37.9 °F21.9 °F53 %30.13 in10.0 miEast (80°)5.8 mphOvercast
10:53 AM39.0 °F21.9 °F50 %30.13 in10.0 miEast (100°)8.1 mphOvercast
11:53 AM39.0 °F21.9 °F50 %30.13 in10.0 miSouth (170°)5.8 mphOvercast
12:53 PM39.9 °F23.0 °F51 %30.09 in10.0 miCalmOvercast
1:53 PM41.0 °F21.9 °F47 %30.06 in10.0 miNNE (30°)3.5 mphOvercast
2:53 PM41.0 °F21.9 °F47 %30.05 in10.0 miCalmOvercast
3:53 PM42.1 °F21.0 °F43 %30.05 in10.0 miNNW (340°)5.8 mphOvercast
4:53 PM42.1 °F21.9 °F45 %30.05 in10.0 miNW (310°)5.8 mphOvercast
5:53 PM41.0 °F23.0 °F49 %30.03 in10.0 miCalmOvercast
6:53 PM36.0 °F32.0 °F86 %30.05 in10.0 miSouth (180°)8.1 mphMostly Cloudy
7:53 PM35.1 °F32.0 °F89 %30.05 in10.0 miSouth (190°)6.9 mphMostly Cloudy
8:53 PM34.0 °F32.0 °F92 %30.04 in10.0 miSSW (200°)8.1 mphScattered Clouds
9:53 PM34.0 °F32.0 °F92 %30.05 in9.0 miSSW (210°)6.9 mphScattered Clouds
10:53 PM30.0 °F28.9 °F96 %30.04 in8.0 miWSW (240°)6.9 mphPartly Cloudy
11:53 PM28.0 °F28.0 °F100 %30.04 in4.0 miWest (260°)5.8 mphScattered Clouds
Hourly data recorded from KICT, located miles away from Wichita, Kansas







STORIES FROM OUR PARTNERS